DELTA 1 DEB, 42084

Orbit data source: Space-Track

DELTA 1 DEB, 42084 is space debris in SSO originally from a launch on Sun, 15 Dec 1968 UTC launched from the Air Force Western Test Range (AFWTR). Debris objects in space refer to the collection of defunct objects orbiting the Earth. Examples of debris include non-operational satellites, rocket bodies, and fragments generated from explosions, collisions, or faulty payload assembly.

Loading next visibility...
Identifier
42084, 1968-114L
Orbit
SSO
Country
Flag of USUS
Related business
Manufacturer
Aerojet
Mission
Spacecraft
Bus & Motor
Unknown
Mass
Unknown
Launch date (UTC)
1968-12-15 (57 years ago)
Launch vehicle
Unknown
Launch site
Air Force Western Test Range (AFWTR)
Object type
Payload
Rocket body
Debris
Shape & HBR
Unknown shape, 0.1 m
Radar Cross Section
Small (<0.1 m²)

Expand to show TLE details & history
Last TLE update: 11 hours ago

TLE from 11 hours ago
0 DELTA 1 DEB
1 42084U 68114L   25346.84525908  .00000518  00000-0  28185-2 0  9999
2 42084 101.7228  32.7984 0345029 192.6628 166.5606 12.53895071276412
Epoch: 2025-12-12T20:17Z
TLE epoch observation values (Epoch: 2025-12-12T20:17:10.384Z)
Latitude
0.00006°
Longitude
6.72408°
Altitude
1,713.986 km
Speed
6.901 km/s
True Right ascension
02h 11m 11s
True Declination
0° 00' 00"
Sunlit
Object was in full shadow at epoch
Visualization orbit readout
Latitude
Unknown
Longitude
Unknown
Altitude
Unknown
Speed
Unknown
Apparent Right ascension
Unknown
Apparent Declination
Unknown
Sunlit
N/A
Visualization observer readout
Local Sidereal Time
05:23:56
Azimuth
Unknown
Elevation
Unknown
Doppler factor
Unknown
Orbital elements
Apogee altitude
1,715.729 km
Perigee altitude
1,175.833 km
Semi-major axis
7,823.918 km
Eccentricity
0.0345
Inclination
101.7228°
RAAN
32.7984°
Arg. of periapsis
192.6628°
True anomaly
167.44243°
Mean anomaly
166.5606°
Eccentric anomaly
167.00513°
Mean motion
3.13622 °/min
Orbital period
114.79 mins
BSTAR
0.0028185
Loading maneuver chart data...
Computing Atmospheric mass density...
Loading historical data...
Loading historical data...
Loading historical data...
Loading historical data...
Loading historical data...
Loading historical data...
Loading historical data...

Documentation

Showing up to 5 results
|